Wind_Speed
6 7 6 5 6 6 8 9 10 11 12 13 14 16 17 18 18 18 18 17 17 16 15 14 13 11 10 9 8 8 10 11 13 15 17 19 19 22 23 25 27 27 27
6 7 6 6 6 6 8 9 10 11 12 13 14 15 16 17 18 18 18 18 17 16 15 14 12 11 9 8 6 6 8 10 11 13 15 17 18 21 22 24 25 27 27
6 6 6 5 6 6 8 9 10 11 11 12 13 14 15 17 17 18 18 18 16 15 14 13 12 10 8 7 6 5 6 8 10 11 13 15 17 19 21 23 25 26 27
6 6 6 6 6 7 8 9 10 11 11 11 12 13 15 16 17 18 18 17 16 15 14 12 11 10 8 6 5 4 4 7 9 10 11 12 15 18 20 22 24 26 27
5 5 5 6 6 7 8 9 10 10 10 10 11 13 14 16 16 17 17 17 16 14 14 12 11 10 8 6 5 3 3 4 6 9 10 12 13 16 18 20 22 25 27
5 5 6 7 7 7 8 9 9 10 10 10 11 12 14 15 16 16 17 17 16 14 13 13 11 10 9 7 5 3 3 3 5 7 9 11 12 14 16 18 20 22 24
6 6 7 7 8 8 8 9 9 10 10 10 11 12 13 14 15 15 16 16 15 14 13 12 11 10 9 8 6 4 3 3 4 6 8 10 11 13 14 17 19 21 23
7 7 8 8 9 9 9 9 9 9 9 10 10 11 12 13 14 14 15 15 15 14 13 12 11 11 10 8 7 6 4 4 4 5 6 8 10 12 13 16 18 20 22
8 8 9 9 10 10 10 10 10 10 10 10 10 11 12 13 13 13 14 14 15 14 13 12 11 10 10 9 8 7 5 2 2 4 5 7 8 11 12 14 16 19 21
9 9 10 10 11 11 11 10 10 10 10 10 10 10 11 12 13 13 13 14 14 13 12 12 10 10 10 10 9 8 6 4 3 3 4 6 7 9 11 13 15 17 19
10 10 11 12 12 12 12 11 11 11 11 10 10 10 11 11 12 12 12 13 13 13 12 11 11 11 10 10 9 8 7 5 4 4 4 5 7 8 11 13 14 16 18
12 12 12 13 13 13 13 13 12 12 11 11 11 10 11 11 11 12 12 12 12 12 12 11 11 11 10 10 9 8 7 6 5 5 5 5 6 8 10 12 14 16 17
14 14 14 14 14 15 14 14 14 13 13 12 11 11 11 11 11 11 11 11 11 11 11 11 11 11 10 9 9 8 7 7 6 6 6 6 6 8 9 11 13 15 17
15 15 15 15 15 16 16 16 16 15 14 14 13 12 12 11 11 11 11 11 11 11 11 11 11 11 10 9 9 9 8 7 7 7 7 7 7 8 9 10 12 14 16
15 15 16 17 17 17 17 17 17 17 16 16 15 14 13 12 12 11 11 11 11 11 11 11 11 11 10 10 9 9 9 8 8 8 8 8 7 8 8 10 12 13 15
17 17 17 18 19 19 19 19 19 19 18 18 17 17 16 15 14 13 12 12 11 11 11 11 11 11 10 10 10 10 9 9 9 9 8 8 8 8 8 9 10 12 13
19 19 19 20 21 21 21 21 21 21 20 20 19 19 18 17 16 15 14 13 12 12 12 11 11 11 11 11 10 10 10 10 10 10 10 9 9 8 9 9 9 11 12
20 20 21 21 22 22 22 23 23 23 23 22 21 21 20 19 18 17 16 15 14 13 13 12 12 12 11 11 11 11 11 11 11 11 11 10 10 10 10 10 10 11 11
24 23 23 23 23 24 24 24 25 25 24 24 23 23 22 22 21 19 18 17 16 15 14 14 13 13 12 12 12 12 11 11 11 11 11 11 11 11 11 11 11 12 12
27 27 26 25 26 26 26 26 27 26 26 26 26 25 24 24 23 22 21 19 18 17 16 15 15 14 14 13 13 13 12 12 12 12 12 11 11 12 11 12 12 12 13
29 29 29 29 29 29 29 28 29 29 29 29 28 28 27 26 25 24 23 22 21 20 19 18 17 16 15 15 14 14 14 13 13 12 12 12 12 12 12 12 13 13 14
33 33 33 32 32 33 32 31 31 31 32 31 30 30 29 29 28 26 26 25 23 22 21 20 19 18 17 17 16 15 15 15 14 14 13 13 12 12 12 13 13 14 15
37 37 36 35 36 36 35 34 34 34 34 33 33 32 32 31 30 29 28 27 26 24 23 22 21 20 19 18 18 17 17 16 16 15 15 14 14 14 14 14 15 15 16
40 40 40 39 38 38 38 37 37 36 36 35 35 35 34 33 32 31 30 29 28 26 25 24 23 22 21 20 20 19 19 18 17 17 16 16 15 15 15 15 16 16 17
43 43 42 41 40 40 40 40 40 39 38 38 37 37 36 36 34 33 32 31 30 29 27 26 25 24 23 22 21 21 20 20 19 19 18 17 17 17 17 17 17 17 18
45 45 44 43 42 42 42 42 42 41 41 40 39 39 39 38 37 35 34 33 32 31 30 28 27 26 25 24 23 23 22 21 21 20 20 19 19 19 19 19 19 19 20
Wind_Direction
267 269 268 284 303 316 322 325 326 331 334 336 339 342 344 345 346 346 344 340 338 337 335 333 331 324 315 303 287 268 252 239 230 227 226 224 223 222 219 217 215 214 216
276 275 266 283 303 315 320 323 326 330 334 337 341 344 346 347 348 348 346 343 340 339 338 337 338 333 326 316 296 271 249 236 229 227 227 225 223 220 218 217 215 215 216
284 281 271 280 300 311 317 322 325 329 333 337 342 345 347 348 349 349 349 348 346 343 342 341 341 341 338 328 309 277 247 236 230 228 228 225 222 220 219 218 216 215 215
283 278 269 278 295 308 316 319 322 325 330 336 342 346 348 349 350 351 352 352 350 348 346 346 345 344 342 335 325 298 254 236 231 227 228 226 220 218 217 218 216 215 215
280 276 270 278 291 304 312 317 321 323 327 334 341 345 348 350 351 352 354 354 352 351 350 350 348 345 342 335 330 309 260 239 230 226 227 225 218 215 217 217 216 216 216
288 278 275 280 290 299 306 313 317 320 325 332 337 342 346 350 352 353 355 356 355 354 353 353 352 350 346 340 328 299 269 250 237 228 225 222 218 216 218 218 217 217 217
294 283 279 283 289 294 301 308 311 315 321 328 333 338 343 348 351 354 356 358 358 357 355 355 357 357 356 356 345 323 278 261 247 233 224 223 223 218 218 218 218 218 218
292 281 277 281 285 289 296 302 306 310 316 323 328 334 339 344 349 352 355 357 359 359 357 357 359 2 2 1 358 350 322 274 245 237 230 230 229 224 222 220 219 219 219
291 282 276 277 279 283 290 296 299 303 309 316 323 329 334 340 345 350 353 355 356 358 358 358 360 2 2 360 359 358 354 329 267 245 238 237 234 229 226 224 222 222 223
291 284 280 277 276 278 282 288 293 297 301 308 316 323 329 336 343 348 351 354 356 357 358 360 359 359 1 3 3 1 359 347 323 285 257 248 241 232 230 228 225 226 226
291 283 280 278 277 276 277 281 285 290 295 300 307 315 322 330 338 345 349 352 354 356 359 1 3 2 2 2 1 1 359 351 338 314 290 272 257 243 240 235 231 230 229
291 282 278 277 276 276 275 276 279 282 287 292 298 306 313 322 331 337 343 346 348 351 356 358 0 1 1 360 358 355 353 349 341 328 313 298 275 257 251 244 237 234 231
295 288 280 276 274 275 274 274 275 276 279 283 288 296 302 310 320 328 334 338 342 345 348 350 353 355 355 355 353 350 345 342 335 328 319 306 286 268 259 251 244 240 237
295 290 284 277 272 272 273 271 272 272 274 277 280 285 290 298 307 315 323 329 334 338 340 342 345 347 348 349 348 346 341 337 332 328 319 308 292 277 265 257 250 244 241
293 289 284 280 274 271 271 269 270 270 271 273 275 277 281 286 293 302 310 318 324 329 333 335 337 339 341 342 342 340 337 332 328 326 321 315 303 287 272 267 257 249 245
292 287 283 280 276 273 271 269 267 267 268 270 271 272 274 278 284 290 296 303 311 317 322 326 330 333 333 333 333 333 330 328 323 320 316 312 306 292 281 274 263 253 250
290 286 283 280 277 274 272 269 267 266 265 267 268 270 271 274 277 281 285 291 298 305 311 315 319 323 327 328 328 326 324 324 321 318 314 310 304 293 284 277 268 262 258
287 284 282 280 278 275 273 271 268 266 264 264 265 267 268 270 271 274 277 281 287 293 300 304 308 312 317 320 323 324 322 321 320 317 314 310 303 294 289 285 278 271 265
287 285 282 280 278 275 273 271 269 267 264 262 263 264 265 267 268 269 271 274 278 284 289 294 298 302 306 309 313 316 316 317 316 315 312 307 303 296 289 286 281 276 270
287 285 282 279 277 275 273 271 269 266 264 261 260 261 263 265 266 266 267 270 273 276 280 284 288 292 296 299 302 307 310 312 313 312 311 307 301 298 291 286 281 276 272
284 283 281 279 276 274 273 271 268 265 263 261 260 260 261 262 263 264 265 266 269 271 273 277 281 284 287 291 294 297 301 303 305 306 306 304 302 299 294 288 282 277 273
283 281 280 278 276 274 272 270 267 264 262 260 259 259 259 260 260 261 262 263 265 267 269 272 275 278 281 283 286 289 293 296 297 299 301 302 301 299 296 290 285 281 276
282 281 279 277 274 272 270 268 265 263 261 260 258 257 257 257 258 259 260 260 262 264 266 268 271 273 276 278 280 283 286 289 291 293 295 296 297 297 297 293 289 286 281
282 280 278 275 273 270 268 267 265 263 261 259 257 256 255 255 256 256 258 259 260 261 263 264 266 269 271 273 276 279 281 283 285 287 289 291 293 295 296 295 292 289 286
279 278 277 274 272 269 266 265 264 262 260 258 256 255 254 254 254 255 256 256 257 258 260 262 264 265 267 269 271 274 277 279 281 282 283 286 288 291 294 295 294 292 289
277 276 275 274 271 268 266 263 262 260 259 258 256 254 253 252 252 253 253 254 255 255 257 258 260 262 264 266 268 270 273 275 278 279 281 282 284 286 289 292 293 293 290
Height
5846 5846 5845 5845 5844 5843 5842 5840 5839 5837 5835 5832 5829 5826 5823 5819 5816 5812 5808 5805 5801 5798 5795 5792 5789 5787 5785 5784 5783 5783 5783 5784 5786 5788 5790 5792 5795 5798 5801 5805 5809 5813 5817
5844 5844 5843 5843 5842 5841 5840 5839 5837 5835 5833 5831 5828 5825 5821 5818 5814 5811 5807 5803 5799 5796 5793 5790 5787 5785 5783 5782 5781 5780 5781 5782 5783 5785 5787 5789 5792 5794 5798 5801 5805 5809 5814
5842 5841 5841 5841 5840 5840 5839 5838 5836 5834 5832 5829 5827 5824 5820 5817 5813 5809 5805 5801 5798 5794 5791 5789 5786 5784 5782 5780 5779 5779 5779 5780 5781 5783 5785 5787 5789 5792 5795 5798 5802 5806 5810
5840 5839 5839 5839 5838 5838 5837 5836 5834 5832 5830 5828 5825 5822 5819 5816 5812 5808 5804 5800 5797 5793 5790 5788 5785 5783 5781 5780 5778 5777 5777 5778 5779 5781 5782 5784 5786 5789 5791 5795 5798 5802 5806
5838 5838 5837 5837 5837 5836 5835 5834 5833 5831 5829 5827 5824 5821 5818 5815 5811 5807 5804 5800 5796 5793 5790 5787 5784 5782 5780 5779 5778 5777 5777 5777 5778 5779 5780 5782 5783 5785 5788 5791 5795 5798 5802
5836 5836 5835 5835 5835 5834 5833 5832 5831 5829 5827 5825 5823 5820 5817 5814 5810 5807 5803 5799 5796 5792 5789 5787 5784 5782 5780 5778 5777 5776 5776 5776 5776 5777 5778 5779 5781 5783 5785 5788 5791 5795 5798
5834 5834 5833 5833 5833 5832 5832 5830 5829 5828 5826 5824 5821 5819 5816 5813 5810 5806 5803 5799 5795 5792 5789 5786 5784 5781 5779 5778 5776 5775 5775 5775 5775 5775 5776 5777 5779 5780 5782 5785 5788 5791 5794
5832 5832 5831 5831 5830 5830 5829 5828 5827 5826 5824 5822 5820 5817 5815 5812 5809 5806 5802 5799 5795 5792 5789 5786 5784 5782 5779 5777 5776 5774 5774 5773 5773 5774 5774 5775 5776 5778 5780 5782 5785 5788 5791
5830 5829 5829 5829 5828 5828 5827 5826 5825 5824 5822 5820 5818 5816 5814 5811 5808 5805 5802 5798 5795 5792 5789 5786 5784 5782 5779 5777 5776 5774 5773 5772 5772 5773 5773 5774 5775 5776 5777 5779 5782 5785 5787
5827 5827 5826 5826 5825 5825 5824 5823 5822 5821 5820 5818 5817 5815 5812 5810 5807 5804 5801 5798 5795 5792 5789 5786 5784 5782 5779 5777 5776 5774 5773 5772 5772 5772 5772 5772 5773 5774 5775 5777 5779 5781 5784
5825 5824 5824 5823 5822 5822 5821 5820 5820 5819 5817 5816 5815 5813 5811 5808 5806 5803 5800 5797 5795 5792 5789 5786 5784 5782 5780 5778 5776 5774 5773 5772 5771 5771 5771 5771 5771 5771 5772 5774 5776 5778 5780
5821 5821 5820 5820 5819 5819 5818 5817 5817 5816 5815 5813 5812 5811 5809 5807 5804 5802 5799 5797 5794 5792 5789 5786 5784 5782 5780 5778 5776 5774 5773 5772 5771 5770 5770 5769 5769 5769 5769 5770 5772 5774 5776
5818 5817 5817 5816 5816 5815 5814 5814 5813 5813 5812 5811 5809 5808 5807 5805 5803 5800 5798 5796 5793 5791 5788 5786 5784 5782 5779 5777 5776 5774 5773 5771 5770 5769 5768 5767 5767 5766 5767 5767 5768 5769 5771
5814 5813 5813 5812 5812 5811 5811 5810 5809 5809 5808 5807 5806 5805 5804 5802 5801 5799 5796 5794 5792 5789 5787 5785 5783 5781 5779 5777 5775 5773 5772 5770 5769 5768 5767 5765 5764 5764 5764 5764 5764 5765 5767
5810 5809 5808 5807 5807 5807 5806 5806 5805 5805 5804 5803 5802 5801 5800 5799 5798 5796 5794 5792 5790 5788 5786 5784 5782 5780 5778 5776 5774 5772 5770 5769 5767 5766 5765 5763 5762 5761 5761 5761 5761 5761 5762
5805 5804 5803 5802 5802 5801 5801 5801 5800 5800 5799 5799 5798 5797 5796 5795 5794 5793 5791 5789 5788 5786 5784 5782 5780 5778 5776 5774 5772 5770 5769 5767 5765 5764 5762 5761 5760 5759 5758 5758 5757 5758 5758
5800 5799 5798 5797 5796 5795 5795 5795 5794 5794 5794 5793 5793 5792 5791 5791 5790 5789 5787 5786 5784 5783 5781 5779 5777 5776 5774 5772 5770 5768 5767 5765 5763 5762 5760 5759 5757 5756 5756 5755 5754 5754 5754
5794 5793 5792 5791 5790 5789 5789 5788 5788 5788 5787 5787 5787 5786 5786 5785 5785 5784 5783 5782 5781 5779 5778 5776 5775 5773 5771 5770 5768 5766 5764 5763 5761 5759 5758 5756 5755 5753 5753 5752 5751 5750 5750
5787 5786 5785 5785 5784 5783 5782 5781 5781 5781 5781 5780 5780 5780 5780 5779 5779 5778 5778 5777 5776 5775 5774 5772 5771 5770 5768 5767 5765 5763 5762 5760 5758 5757 5755 5753 5752 5751 5749 5748 5748 5747 5747
5779 5778 5777 5777 5776 5775 5774 5774 5773 5773 5773 5773 5773 5773 5773 5773 5772 5772 5771 5771 5770 5770 5769 5768 5767 5766 5764 5763 5762 5760 5759 5757 5755 5754 5752 5750 5749 5747 5746 5745 5744 5744 5743
5772 5770 5769 5768 5767 5766 5766 5766 5765 5765 5764 5764 5764 5765 5765 5765 5765 5765 5765 5764 5764 5764 5763 5762 5762 5761 5760 5759 5758 5756 5755 5753 5752 5750 5748 5747 5745 5744 5742 5741 5740 5739 5739
5762 5760 5759 5758 5757 5756 5756 5756 5755 5755 5754 5755 5755 5756 5756 5756 5757 5757 5757 5757 5757 5757 5757 5756 5756 5755 5754 5754 5753 5752 5750 5749 5748 5746 5745 5743 5741 5740 5738 5737 5736 5735 5734
5750 5749 5748 5747 5746 5744 5744 5744 5744 5743 5744 5744 5745 5746 5746 5747 5747 5748 5748 5749 5749 5749 5749 5749 5749 5748 5748 5748 5747 5746 5745 5744 5743 5742 5740 5739 5737 5736 5734 5733 5731 5730 5729
5737 5736 5734 5733 5733 5732 5731 5731 5731 5731 5732 5733 5734 5735 5736 5737 5737 5738 5739 5740 5740 5741 5741 5742 5742 5741 5741 5741 5741 5740 5739 5738 5738 5736 5735 5734 5733 5731 5730 5728 5727 5725 5724
5723 5721 5720 5719 5719 5718 5718 5718 5717 5718 5719 5720 5721 5723 5724 5725 5727 5728 5729 5730 5731 5732 5733 5733 5733 5734 5734 5734 5733 5733 5733 5732 5731 5730 5729 5728 5727 5726 5724 5723 5721 5720 5719
5707 5706 5705 5704 5704 5703 5704 5704 5704 5704 5705 5706 5708 5710 5712 5713 5715 5716 5718 5719 5721 5722 5723 5724 5725 5725 5725 5725 5726 5726 5725 5725 5724 5724 5723 5722 5721 5720 5719 5717 5716 5714 5712